Location: Weatherford
(35.5260°N, 98.7070°W)
Time: 02:04:29
(UTC-06:00)

Amateur Radio Satellites - All Passes

Search period start: 19 December 2014 01:34
Search period end: 20 December 2014 01:34
Location: Weatherford, 35.5260°N, 98.7070°W

Satellite Date Start Highest point End Downlink Frequencies (MHz)
Time Altitude Azimuth
KKS-1 19 Dec 01:35:31 01:38:56 22° 69° (ENE) 01:42:22 437.445
BEESAT 19 Dec 01:36:31 01:41:15 64° 259° (WSW) 01:46:02 436.000
STARS 19 Dec 01:37:03 01:39:33 15° 66° (ENE) 01:42:05 437.465
Oscar 19 19 Dec 01:47:38 01:52:42 51° 100° (E) 01:57:43 437.125/150
PCSat 19 Dec 01:48:14 01:50:17 12° 258° (WSW) 01:52:19 145.827
AUBIESAT-1 19 Dec 01:56:37 02:01:19 63° 255° (WSW) 02:06:11 437.475
ITAMSAT 1 19 Dec 01:59:51 02:03:53 23° 95° (E) 02:07:54 435.822/435.867
M-CUBED/EXP-1 PRIME 19 Dec 02:21:27 02:25:39 31° 259° (W) 02:30:00 437.505
YUBILEINY 19 Dec 02:30:47 02:36:36 19° 292° (WNW) 02:42:27 435.215
ITUPSAT 1 19 Dec 02:52:44 02:53:44 11° 269° (W) 02:54:44 437.325
HORYU 2 19 Dec 02:59:44 03:02:54 19° 95° (E) 03:06:03 437.375
AO-7 19 Dec 03:05:03 03:07:43 12° 90° (E) 03:10:23 29.400- 29.500
STARS 19 Dec 03:11:31 03:15:39 42° 261° (W) 03:19:49 437.465
KKS-1 19 Dec 03:11:37 03:15:24 28° 263° (W) 03:19:13 437.445
Gurwin Techsat 1B 19 Dec 03:22:32 03:27:52 87° 284° (WNW) 03:33:10 435.225
VERMONT LUNAR 19 Dec 03:24:00 03:27:13 33° 149° (SSE) 03:30:27 437.305
Oscar 19 19 Dec 03:28:14 03:31:35 18° 295° (WNW) 03:34:55 437.125/150
PHONESAT 2.4 19 Dec 03:29:17 03:32:16 24° 146° (SE) 03:35:15 2401.200-2431.200
ITAMSAT 1 19 Dec 03:38:43 03:43:25 36° 290° (WNW) 03:48:06 435.822/435.867
MOZHAYETS 4 19 Dec 04:07:30 04:11:31 30° 71° (ENE) 04:15:33
AIST 1 19 Dec 04:23:44 04:28:02 86° 83° (E) 04:32:16
GONETS M04 19 Dec 04:33:21 04:37:59 16° 78° (ENE) 04:42:36
HORYU 2 19 Dec 04:35:31 04:39:37 34° 289° (WNW) 04:43:41 437.375
AO-7 19 Dec 04:53:10 05:01:35 77° 106° (ESE) 05:09:55 29.400- 29.500
VERMONT LUNAR 19 Dec 05:02:00 05:05:28 56° 344° (NNW) 05:08:57 437.305
PHONESAT 2.4 19 Dec 05:07:08 05:10:45 71° 340° (NNW) 05:14:23 2401.200-2431.200
JAS-2 19 Dec 05:24:00 05:29:28 52° 99° (E) 05:34:31 435.910
CUBESAT XI-V 19 Dec 05:27:10 05:29:47 15° 66° (ENE) 05:32:23 437.345
PRISM 19 Dec 05:30:42 05:34:32 34° 72° (ENE) 05:38:23 437.425
MOZHAYETS 4 19 Dec 05:45:03 05:48:42 23° 265° (W) 05:52:22
Cubesat XI-IV 19 Dec 06:20:14 06:25:07 36° 98° (E) 06:29:59 437.490
GONETS M04 19 Dec 06:24:38 06:33:29 89° 276° (W) 06:42:23
STRAND 1 19 Dec 06:31:16 06:36:20 67° 74° (ENE) 06:41:24 437.568
VERMONT LUNAR 19 Dec 06:40:54 06:44:10 34° 1° (N) 06:47:27 437.305
PHONESAT 2.4 19 Dec 06:46:22 06:49:45 36° 357° (N) 06:53:09 2401.200-2431.200
AO-7 19 Dec 06:47:29 06:53:27 22° 303° (WNW) 06:59:25 29.400- 29.500
SO-50 19 Dec 06:52:11 06:57:04 65° 59° (ENE) 07:01:56 436.795
CUTE-I 19 Dec 06:53:41 06:59:01 78° 103° (ESE) 07:04:19 437.470
CUBESAT XI-V 19 Dec 07:02:15 07:06:46 49° 261° (W) 07:11:18 437.345
PRISM 19 Dec 07:07:28 07:10:08 16° 266° (W) 07:12:49 437.425
JAS-2 19 Dec 07:10:32 07:13:59 17° 298° (WNW) 07:17:18 435.910
Cubesat XI-IV 19 Dec 08:00:45 08:04:58 25° 293° (WNW) 08:09:11 437.490
HO-68 19 Dec 08:14:05 08:18:47 19° 93° (E) 08:23:28 435.675
STRAND 1 19 Dec 08:14:07 08:15:55 12° 268° (W) 08:17:43 437.568
VERMONT LUNAR 19 Dec 08:19:20 08:22:50 62° 18° (NNE) 08:26:21 437.305
PHONESAT 2.4 19 Dec 08:25:17 08:28:51 51° 14° (NNE) 08:32:24 2401.200-2431.200
GONETS M04 19 Dec 08:26:34 08:31:31 16° 295° (WNW) 08:36:30
SEEDS 19 Dec 08:29:22 08:30:59 12° 92° (E) 08:32:36 437.485
CUTE 1.7 + AOD 2 19 Dec 08:29:55 08:32:21 15° 93° (E) 08:34:46 437.475
SO-50 19 Dec 08:34:57 08:37:03 13° 253° (WSW) 08:39:09 436.795
CUTE-I 19 Dec 08:36:25 08:38:22 12° 298° (WNW) 08:40:19 437.470
DOVE 4 19 Dec 08:38:58 08:40:59 12° 93° (E) 08:43:01 437.250
MaSat-1 19 Dec 08:40:18 08:41:22 12° 108° (ESE) 08:42:24 437.345
BRITE-PL 19 Dec 09:07:05 09:11:40 49° 100° (E) 09:16:37 437.365/2234.400
CINEMA 3 19 Dec 09:15:00 09:18:17 18° 94° (E) 09:21:37 145.822/145.860
ANTELSAT 19 Dec 09:19:08 09:20:58 13° 65° (ENE) 09:22:49 437.575/2403.000
AAUSAT CUBESAT 2 19 Dec 09:25:19 09:29:21 41° 99° (E) 09:33:20 437.432
NANOSAT C BR1 19 Dec 09:32:42 09:33:08 10° 65° (ENE) 09:33:34 145.865
CANX-2 19 Dec 09:33:05 09:37:26 85° 283° (WNW) 09:41:44 2200.000
DANDE 19 Dec 09:37:36 09:39:55 18° 85° (E) 09:42:39 436.750
GOMX 1 19 Dec 09:41:35 09:46:23 83° 102° (ESE) 09:51:30 467.674
QB50P1 19 Dec 09:44:44 09:47:07 15° 67° (ENE) 09:49:30 145.935-145.965
UWE-3 19 Dec 09:50:00 09:53:34 22° 95° (E) 09:57:09 435.000/436.395/437.385
FUNcube-1 19 Dec 09:53:28 09:56:44 19° 94° (E) 10:00:01 145.935
TIGRISAT 19 Dec 09:53:28 09:57:13 30° 71° (ENE) 10:01:02 435.000
VERMONT LUNAR 19 Dec 09:57:56 10:01:02 28° 212° (SSW) 10:04:07 437.305
COMPASS 1 19 Dec 09:59:23 10:03:37 63° 284° (WNW) 10:07:48 437.405
HO-68 19 Dec 09:59:53 10:06:59 70° 288° (WNW) 10:14:03 435.675
SEEDS 19 Dec 10:02:54 10:07:02 47° 286° (WNW) 10:11:08 437.485
PHONESAT 2.4 19 Dec 10:04:05 10:07:31 40° 210° (SSW) 10:10:57 2401.200-2431.200
CUTE 1.7 + AOD 2 19 Dec 10:04:23 10:08:25 39° 287° (WNW) 10:12:25 437.475
AISAT 19 Dec 10:05:55 10:08:05 13° 93° (E) 10:10:14 437.250
DX 1 19 Dec 10:10:01 10:14:13 48° 100° (E) 10:18:25 434.975-435.025
POPSAT HIP 1 19 Dec 10:11:44 10:15:25 30° 71° (ENE) 10:19:06 437.405
MaSat-1 19 Dec 10:14:10 10:14:37 10° 300° (WNW) 10:15:05 437.345
DOVE 4 19 Dec 10:14:15 10:18:57 61° 285° (WNW) 10:23:56 437.250
RS-15 19 Dec 10:17:56 10:23:09 15° 98° (E) 10:28:18 29.354- 29.394
UNISAT 6 19 Dec 10:21:10 10:25:26 65° 75° (ENE) 10:29:51 437.425
DELFI C3 19 Dec 10:25:09 10:29:17 88° 102° (ESE) 10:33:23 145.870
50 SAT 19 Dec 10:28:15 10:31:20 20° 95° (E) 10:34:25 437.505
CUSAT 1 19 Dec 10:34:57 10:38:09 48° 284° (WNW) 10:42:22 437.405
Oscar 11 19 Dec 10:35:13 10:39:31 59° 285° (WNW) 10:43:47 145.826/435.025
HUMSAT D 19 Dec 10:37:58 10:41:56 34° 98° (E) 10:45:54 437.325/437.525
DUCHIFAT 1 19 Dec 10:39:59 10:44:08 68° 76° (ENE) 10:48:19 145.980
UKube-1 19 Dec 10:42:42 10:47:01 70° 285° (WNW) 10:51:18 .
CUBEBUG 2 19 Dec 10:44:12 10:48:51 78° 283° (WNW) 10:53:35 437.445
YUBILEINY 19 Dec 10:44:43 10:52:21 33° 74° (ENE) 10:59:56 435.215
BUGSAT 1 19 Dec 10:46:24 10:50:28 64° 75° (ENE) 10:54:31 437.445
BRITE-PL 19 Dec 10:47:03 10:49:51 16° 292° (WNW) 10:52:46 437.365/2234.400
CINEMA 3 19 Dec 10:51:06 10:55:32 41° 287° (WNW) 11:00:07 145.822/145.860
QB50P2 19 Dec 10:52:22 10:56:35 82° 258° (WSW) 11:00:49 145.880/145.840
ANTELSAT 19 Dec 10:53:02 10:57:15 52° 260° (W) 11:01:35 437.575/2403.000
ESTCUBE 1 19 Dec 10:56:11 10:59:25 19° 95° (E) 11:02:37 437.505/2401.250
VELOX 1 19 Dec 10:58:14 11:02:34 54° 101° (E) 11:06:54 145.980
POLYITAN 1 19 Dec 11:00:43 11:04:53 65° 259° (W) 11:09:05 437.675
ZACube-1 19 Dec 11:01:27 11:05:58 69° 284° (WNW) 11:10:31 437.345
AAUSAT CUBESAT 2 19 Dec 11:02:21 11:04:37 14° 293° (WNW) 11:06:53 437.432
NANOSAT C BR1 19 Dec 11:04:19 11:08:28 59° 259° (W) 11:12:37 145.865
QB50P1 19 Dec 11:18:43 11:22:39 39° 261° (W) 11:26:36 145.935-145.965
DANDE 19 Dec 11:21:07 11:23:19 16° 293° (WNW) 11:25:52 436.750
UWE-3 19 Dec 11:26:01 11:30:04 31° 288° (WNW) 11:34:10 435.000/436.395/437.385
FUNcube-1 19 Dec 11:29:01 11:33:06 34° 288° (WNW) 11:37:13 145.935
TIGRISAT 19 Dec 11:30:48 11:33:58 20° 266° (W) 11:37:12 435.000
O/OREOS (USA 219) 19 Dec 11:31:37 11:36:09 89° 70° (ENE) 11:40:41 437.305
AISAT 19 Dec 11:40:40 11:44:54 46° 287° (WNW) 11:49:08 437.250
DX 1 19 Dec 11:47:59 11:50:01 13° 295° (WNW) 11:52:02 434.975-435.025
POPSAT HIP 1 19 Dec 11:48:26 11:51:20 18° 265° (W) 11:54:14 437.405
HO-68 19 Dec 11:51:29 11:53:24 11° 306° (NW) 11:55:18 435.675
CUBEBUG 1 19 Dec 11:51:50 11:56:11 83° 103° (ESE) 12:00:31 437.445
50 SAT 19 Dec 12:03:00 12:06:31 27° 289° (WNW) 12:10:01 437.505
HUMSAT D 19 Dec 12:14:32 12:17:26 18° 292° (WNW) 12:20:21 437.325/437.525
RS-15 19 Dec 12:22:41 12:33:39 80° 116° (ESE) 12:44:35 29.354- 29.394
JUGNU 19 Dec 12:31:14 12:33:46 13° 168° (SSE) 12:36:19 437.505
ESTCUBE 1 19 Dec 12:32:18 12:36:19 32° 289° (WNW) 12:40:17 437.505/2401.250
VELOX 1 19 Dec 12:36:54 12:38:39 12° 295° (WNW) 12:40:24 145.980
YUBILEINY 19 Dec 12:41:06 12:49:16 47° 271° (W) 12:57:26 435.215
PCSat 19 Dec 13:00:36 13:03:15 14° 103° (ESE) 13:05:54 145.827
Oscar 19 19 Dec 13:01:30 13:06:29 54° 73° (ENE) 13:11:30 437.125/150
Gurwin Techsat 1B 19 Dec 13:04:33 13:06:38 12° 62° (ENE) 13:08:43 435.225
SPROUT 19 Dec 13:05:36 13:09:51 63° 285° (WNW) 13:14:05 437.525
TISAT 1 19 Dec 13:06:56 13:11:04 55° 285° (WNW) 13:15:12 437.305
BEESAT 3 19 Dec 13:11:28 13:14:55 27° 112° (ESE) 13:18:26 437.485
AIST 2 19 Dec 13:13:16 13:14:06 11° 107° (ESE) 13:14:55 435.215
ITAMSAT 1 19 Dec 13:15:02 13:19:18 27° 68° (ENE) 13:23:34 435.822/435.867
SWISSCUBE 19 Dec 13:15:20 13:19:11 24° 96° (E) 13:22:59 437.505
ITUPSAT 1 19 Dec 13:15:23 13:19:02 22° 95° (E) 13:22:39 437.325
SRMSAT 19 Dec 13:33:18 13:34:36 11° 166° (SSE) 13:35:54 437.500
ISS 19 Dec 13:39:49 13:42:54 38° 133° (SE) 13:46:00 145.825
BEESAT 19 Dec 13:40:07 13:44:37 41° 99° (E) 13:49:05 436.000
AUBIESAT-1 19 Dec 13:44:47 13:46:47 13° 95° (E) 13:48:43 437.475
BEESAT 2 19 Dec 13:49:22 13:53:25 69° 117° (ESE) 13:57:34 435.950
HORYU 2 19 Dec 13:56:56 13:58:53 13° 65° (ENE) 14:00:51 437.375
AO-7 19 Dec 14:00:49 14:05:17 16° 52° (NE) 14:09:45 29.400- 29.500
M-CUBED/EXP-1 PRIME 19 Dec 14:07:59 14:11:45 29° 100° (E) 14:15:12 437.505
JUGNU 19 Dec 14:18:17 14:22:03 17° 178° (S) 14:25:47 437.505
RS-15 19 Dec 14:38:08 14:47:12 29° 320° (NW) 14:56:24 29.354- 29.394
Gurwin Techsat 1B 19 Dec 14:40:36 14:45:54 76° 258° (WSW) 14:51:13 435.225
PCSat 19 Dec 14:40:40 14:46:01 66° 298° (WNW) 14:51:26 145.827
Oscar 19 19 Dec 14:43:15 14:46:06 15° 268° (W) 14:48:59 437.125/150
AIST 2 19 Dec 14:47:59 14:52:08 59° 301° (WNW) 14:56:23 435.215
BEESAT 3 19 Dec 14:49:44 14:53:03 23° 308° (NW) 14:56:25 437.485
ITUPSAT 1 19 Dec 14:52:41 14:56:56 33° 290° (WNW) 15:01:09 437.325
SWISSCUBE 19 Dec 14:52:52 14:56:59 30° 290° (WNW) 15:01:05 437.505
ITAMSAT 1 19 Dec 14:54:01 14:58:37 32° 263° (W) 15:03:14 435.822/435.867
STARS 19 Dec 15:04:25 15:08:39 43° 99° (E) 15:12:53 437.465
KKS-1 19 Dec 15:05:07 15:09:35 70° 102° (ESE) 15:14:02 437.445
ISS 19 Dec 15:17:01 15:19:35 21° 328° (NNW) 15:22:09 145.825
AUBIESAT-1 19 Dec 15:17:58 15:22:02 41° 293° (WNW) 15:25:46 437.475
BEESAT 19 Dec 15:18:55 15:22:07 18° 294° (WNW) 15:25:17 436.000
SRMSAT 19 Dec 15:19:25 15:23:00 16° 176° (S) 15:26:35 437.500
BEESAT 2 19 Dec 15:30:40 15:32:08 12° 314° (NW) 15:33:36 435.950
HORYU 2 19 Dec 15:30:42 15:35:03 53° 260° (W) 15:39:27 437.375
JAS-2 19 Dec 15:32:33 15:38:03 22° 64° (ENE) 15:43:15 435.910
M-CUBED/EXP-1 PRIME 19 Dec 15:43:19 15:46:32 21° 298° (WNW) 15:49:34 437.505
AO-7 19 Dec 15:48:26 15:56:43 79° 71° (ENE) 16:05:05 29.400- 29.500
JUGNU 19 Dec 16:07:09 16:10:19 15° 189° (S) 16:13:29 437.505
CUTE-I 19 Dec 16:37:37 16:38:40 11° 61° (ENE) 16:39:43 437.470
GONETS M04 19 Dec 16:39:14 16:47:20 40° 75° (ENE) 16:55:18
STARS 19 Dec 16:42:12 16:44:44 15° 294° (WNW) 16:47:16 437.465
AIST 1 19 Dec 16:50:00 16:54:18 59° 94° (E) 16:58:37
RS-15 19 Dec 17:01:08 17:05:07 12° 355° (N) 17:09:10 29.354- 29.394
SRMSAT 19 Dec 17:07:58 17:11:26 16° 186° (S) 17:14:53 437.500
JAS-2 19 Dec 17:14:45 17:22:29 70° 258° (WSW) 17:29:41 435.910
Cubesat XI-IV 19 Dec 17:39:19 17:44:22 45° 72° (ENE) 17:49:26 437.490
MOZHAYETS 4 19 Dec 17:42:15 17:46:52 75° 284° (WNW) 17:51:27
AO-7 19 Dec 17:44:49 17:50:12 19° 267° (W) 17:55:38 29.400- 29.500
CUTE-I 19 Dec 18:12:37 18:17:56 87° 256° (WSW) 18:23:17 437.470
GONETS M04 19 Dec 18:36:08 18:44:00 39° 273° (W) 18:51:49
HO-68 19 Dec 18:43:51 18:45:15 11° 54° (NE) 18:46:38 435.675
STRAND 1 19 Dec 18:45:24 18:49:46 28° 97° (E) 18:54:06 437.568
PRISM 19 Dec 18:51:52 18:56:03 90° 284° (WNW) 19:00:09 437.425
CUBESAT XI-V 19 Dec 19:02:05 19:06:34 51° 100° (E) 19:11:02 437.345
RS-15 19 Dec 19:15:58 19:24:02 22° 32° (NNE) 19:32:17 29.354- 29.394
Cubesat XI-IV 19 Dec 19:20:54 19:24:37 19° 266° (W) 19:28:22 437.490
CUSAT 1 19 Dec 19:33:34 19:38:33 18° 68° (ENE) 19:43:47 437.405
MaSat-1 19 Dec 19:45:57 19:47:53 20° 251° (WSW) 19:49:55 437.345
ISS 19 Dec 20:11:00 20:13:10 16° 29° (NNE) 20:15:20 145.825
AAUSAT CUBESAT 2 19 Dec 20:14:33 20:17:38 20° 69° (ENE) 20:20:45 437.432
BRITE-PL 19 Dec 20:16:12 20:20:04 36° 73° (ENE) 20:23:52 437.365/2234.400
DANDE 19 Dec 20:18:36 20:25:30 33° 74° (ENE) 20:33:04 436.750
CANX-2 19 Dec 20:23:16 20:27:19 45° 74° (ENE) 20:31:25 2200.000
HO-68 19 Dec 20:24:31 20:31:36 67° 71° (ENE) 20:38:42 435.675
STRAND 1 19 Dec 20:24:31 20:28:51 29° 291° (WNW) 20:33:10 437.568
CUBESAT XI-V 19 Dec 20:41:16 20:43:32 14° 294° (WNW) 20:45:48 437.345
UWE-3 19 Dec 20:46:53 20:48:18 12° 65° (ENE) 20:49:44 435.000/436.395/437.385
GOMX 1 19 Dec 20:47:45 20:51:51 60° 75° (ENE) 20:55:56 467.674
COMPASS 1 19 Dec 20:47:55 20:52:02 58° 75° (ENE) 20:56:13 437.405
SEEDS 19 Dec 20:51:57 20:56:10 80° 77° (ENE) 21:00:27 437.485
CUTE 1.7 + AOD 2 19 Dec 20:54:01 20:58:16 82° 258° (WSW) 21:02:34 437.475
DX 1 19 Dec 21:03:11 21:06:56 29° 70° (ENE) 21:10:41 434.975-435.025
SO-50 19 Dec 21:04:18 21:08:30 41° 114° (ESE) 21:12:50 436.795
DELFI C3 19 Dec 21:10:56 21:14:41 36° 73° (ENE) 21:18:29 145.870
CUSAT 1 19 Dec 21:14:25 21:22:19 88° 83° (E) 21:30:53 437.405
DOVE 4 19 Dec 21:17:43 21:21:51 81° 258° (WSW) 21:26:02 437.250
Oscar 11 19 Dec 21:26:49 21:31:06 72° 76° (ENE) 21:35:27 145.826/435.025
RS-15 19 Dec 21:27:30 21:38:50 71° 58° (ENE) 21:50:39 29.354- 29.394
HUMSAT D 19 Dec 21:28:38 21:31:19 17° 68° (ENE) 21:34:01 437.325/437.525
UKube-1 19 Dec 21:34:43 21:39:00 68° 75° (ENE) 21:43:19 .
CUBEBUG 2 19 Dec 21:40:02 21:44:06 60° 75° (ENE) 21:48:17 437.445
ISS 19 Dec 21:46:47 21:49:59 55° 225° (SW) 21:53:10 145.825
AAUSAT CUBESAT 2 19 Dec 21:49:30 21:53:06 28° 264° (W) 21:56:45 437.432
CINEMA 3 19 Dec 21:50:22 21:54:26 57° 260° (W) 21:58:35 145.822/145.860
VELOX 1 19 Dec 21:53:29 21:57:28 34° 71° (ENE) 22:01:27 145.980
ESTCUBE 1 19 Dec 21:54:23 21:56:39 14° 66° (ENE) 21:58:55 437.505/2401.250
ZACube-1 19 Dec 21:54:50 21:58:56 64° 76° (ENE) 22:03:08 437.345
BRITE-PL 19 Dec 21:56:31 21:58:44 14° 266° (W) 22:00:56 437.365/2234.400
DANDE 19 Dec 22:01:32 22:09:04 52° 267° (W) 22:17:24 436.750
CANX-2 19 Dec 22:01:41 22:03:28 12° 268° (W) 22:05:16 2200.000
BEESAT 2 19 Dec 22:13:04 22:16:05 19° 50° (NE) 22:19:04 435.950
HO-68 19 Dec 22:14:47 22:19:44 20° 266° (W) 22:24:43 435.675
UNISAT 6 19 Dec 22:17:14 22:20:32 19° 94° (E) 22:23:50 437.425
UWE-3 19 Dec 22:20:19 22:24:21 50° 260° (W) 22:28:28 435.000/436.395/437.385
FUNcube-1 19 Dec 22:21:55 22:26:00 59° 260° (W) 22:30:11 145.935
DUCHIFAT 1 19 Dec 22:29:52 22:32:06 14° 93° (E) 22:34:20 145.980
BUGSAT 1 19 Dec 22:34:16 22:35:35 11° 93° (E) 22:36:54 437.445
AISAT 19 Dec 22:35:38 22:40:03 75° 258° (WSW) 22:44:28 437.250
DX 1 19 Dec 22:39:55 22:43:09 20° 264° (W) 22:46:23 434.975-435.025
QB50P2 19 Dec 22:41:53 22:45:04 20° 95° (E) 22:48:15 145.880/145.840
CUBEBUG 1 19 Dec 22:45:16 22:49:27 46° 74° (ENE) 22:53:38 437.445
SO-50 19 Dec 22:45:48 22:49:12 20° 311° (NW) 22:52:41 436.795
DELFI C3 19 Dec 22:47:46 22:50:04 15° 267° (W) 22:52:22 145.870
50 SAT 19 Dec 22:47:49 22:51:46 62° 259° (W) 22:55:47 437.505
ANTELSAT 19 Dec 22:48:07 22:52:35 41° 99° (E) 22:57:02 437.575/2403.000
POLYITAN 1 19 Dec 22:50:03 22:53:38 25° 96° (E) 22:57:12 437.675
NANOSAT C BR1 19 Dec 22:53:04 22:56:42 27° 97° (E) 23:00:20 145.865
CUSAT 1 19 Dec 22:59:45 23:04:38 18° 276° (W) 23:09:43 437.405
HUMSAT D 19 Dec 23:03:08 23:06:50 32° 263° (W) 23:10:35 437.325/437.525
QB50P1 19 Dec 23:07:00 23:11:01 40° 99° (E) 23:15:01 145.935-145.965
BEESAT 3 19 Dec 23:11:16 23:15:27 87° 62° (ENE) 23:19:33 437.485
AIST 2 19 Dec 23:12:57 23:16:55 36° 55° (NE) 23:20:49 435.215
TIGRISAT 19 Dec 23:24:03 23:28:46 80° 284° (WNW) 23:33:29 435.000
ESTCUBE 1 19 Dec 23:28:39 23:33:04 50° 260° (W) 23:37:29 437.505/2401.250
VELOX 1 19 Dec 23:31:04 23:34:06 18° 265° (W) 23:37:08 145.980
PCSat 19 Dec 23:31:37 23:36:55 52° 60° (ENE) 23:42:10 145.827
POPSAT HIP 1 19 Dec 23:35:23 23:39:39 90° 284° (WNW) 23:43:56 437.405
RS-15 19 Dec 23:41:09 23:50:17 29° 256° (WSW) 23:59:46 29.354- 29.394
YUBILEINY 19 Dec 23:41:39 23:49:40 42° 88° (E) 23:57:39 435.215
BEESAT 2 19 Dec 23:50:36 23:54:27 36° 246° (WSW) 23:58:14 435.950
UNISAT 6 19 Dec 23:53:03 23:57:23 38° 288° (WNW) 00:01:44 437.425
TISAT 1 19 Dec 23:56:23 00:00:34 73° 76° (ENE) 00:04:46 437.305
SPROUT 19 Dec 23:56:46 00:01:00 67° 76° (ENE) 00:05:15 437.525
O/OREOS (USA 219) 20 Dec 00:03:56 00:06:18 14° 99° (E) 00:08:40 437.305
DUCHIFAT 1 20 Dec 00:04:07 00:08:06 40° 287° (WNW) 00:12:05 145.980
BUGSAT 1 20 Dec 00:07:24 00:11:16 44° 286° (WNW) 00:15:09 437.445
QB50P2 20 Dec 00:17:18 00:20:57 28° 289° (WNW) 00:24:36 145.880/145.840
SWISSCUBE 20 Dec 00:19:40 00:23:12 21° 67° (ENE) 00:26:45 437.505
ITUPSAT 1 20 Dec 00:20:00 00:23:21 19° 67° (ENE) 00:26:42 437.325
CUBEBUG 1 20 Dec 00:24:05 00:26:01 13° 267° (W) 00:27:58 437.445
ANTELSAT 20 Dec 00:25:52 00:29:01 18° 293° (WNW) 00:32:11 437.575/2403.000
POLYITAN 1 20 Dec 00:26:03 00:29:25 23° 290° (WNW) 00:32:48 437.675
NANOSAT C BR1 20 Dec 00:29:11 00:32:24 21° 291° (WNW) 00:35:38 145.865
AUBIESAT-1 20 Dec 00:30:21 00:33:15 16° 61° (ENE) 00:36:11 437.475
BEESAT 20 Dec 00:43:57 00:48:15 34° 71° (ENE) 00:52:34 436.000
QB50P1 20 Dec 00:44:07 00:46:32 15° 293° (WNW) 00:48:58 145.935-145.965
AIST 2 20 Dec 00:52:20 00:55:14 18° 251° (WSW) 00:58:06 435.215
M-CUBED/EXP-1 PRIME 20 Dec 00:53:49 00:57:59 30° 65° (ENE) 01:02:15 437.505
PCSat 20 Dec 01:16:17 01:19:51 18° 255° (WSW) 01:23:23 145.827
Oscar 19 20 Dec 01:16:43 01:20:56 25° 96° (E) 01:25:07 437.125/150
